{"data":{"norad_id":63870,"intl_designator":"2025-094G","name":"STARLINK-33986","alt_names":[],"object_type":"PAYLOAD","status":"ACTIVE","operator":null,"country":"US","launch_date":"2025-05-10","launch_site_code":"AFWTR","launch_vehicle":null,"mission":null,"orbit_class":"UNKNOWN","rcs_meters":null,"size_class":null,"mass_kg":null,"dimensions":null,"purposes":["comms"],"wikipedia_slug":null,"has_3d_model":false,"image_url":null,"decayed_at":null,"tle_current":{"epoch":"2026-09-20T22:00:03.000096Z","epoch_age_seconds":111036,"freshness":"FRESH","line1":"1 63870U 25094G   26263.91670139  .00031819  00000+0  10792-2 0  9991","line2":"2 63870  69.9996  99.8492 0002705 269.9099 167.4586 15.30398190  5778","mean_motion":15.3039819,"eccentricity":0.0002705,"inclination_deg":69.9996,"raan_deg":99.8492,"arg_perigee_deg":269.9099,"mean_anomaly_deg":167.4586,"bstar":0.0010792,"rev_number":577,"period_min":94.093158852991,"perigee_km":472.76970198498,"apogee_km":476.47704534714,"semimajor_km":6852.7603736661,"source":"CELESTRAK","updated_at":"2026-09-21T09:00:35.138227Z"}}}